Tracking 19634 objects as of 23-May-2019
HD Live streaming from Space Station
objects crossing your sky now

FLOCK 3P 18

Track FLOCK 3P 18 now!
10-day predictions
FLOCK 3P 18 is classified as:


NORAD ID: 41957
Int'l Code: 2017-008K
Perigee: 488.1 km
Apogee: 498.2 km
Inclination: 97.4 °
Period: 94.3 minutes
Semi major axis: 6864 km
RCS: Unknown
Launch date: February 15, 2017
Source: United States (US)
Launch site: SRIHARIKOTA (SRI)
aabbcc
Your satellite tracking list
Your tracking list is empty




NASA's NSSDC Master Catalog

Two Line Element Set (TLE):
1 41957U 17008K   19143.13191993  .00001862  00000-0  73908-4 0  9994
2 41957  97.4043 210.6747 0007367 222.9651 137.1013 15.26595895125786
Source of the keplerian elements: AFSPC